Regional Weather Roundup
Issued by NWS Little Rock, AR

Home | Current Version | Previous Version | Graphics & Text | Print | Product List | Glossary On
Versions: 1 2 3 4 5 6 7 8 9 10 11 12 13 14 15 16 17 18 19 20 21 22 23 24 25 26 27 28 29 30 31 32 33 34 35 36 37 38 39 40 41 42 43 44 45 46 47 48 49 50
000
ASUS44 KLZK 180705
RWRLZK

WEATHER ROUNDUP FOR ARKANSAS
NATIONAL WEATHER SERVICE LITTLE ROCK AR
200 AM CDT THU SEP 18 2014

NOTE: "FAIR" INDICATES FEW OR NO CLOUDS BELOW 12,000 FEET WITH NO
SIGNIFICANT WEATHER AND/OR OBSTRUCTIONS TO VISIBILITY.

ARZ001-003-010-029-180800-
NORTHWEST ARKANSAS

CITY           SKY/WX    TMP DP  RH WIND       PRES   REMARKS
FAYETTEVILLE   FOG       63  63 100 CALM      29.92F VSB 3/4
FORT SMITH     CLOUDY    69  66  90 CALM      29.89S
HARRISON       FOG       62  62 100 SE3       29.95S VSB 1/4
BENTONVILLE    CLOUDY    64  63  94 S3        29.92F
ROGERS         CLOUDY    64  62  93 SE3       29.93F
SILOAM SPGS    CLOUDY    64  61  88 S3        29.93S
HIGHFILL       CLOUDY    64  63  96 SW5       29.92F
$$

ARZ004-005-016-180800-
NORTH CENTRAL ARKANSAS

CITY           SKY/WX    TMP DP  RH WIND       PRES   REMARKS
BATESVILLE     CLOUDY    63  61  94 E5        29.95S
FLIPPIN        CLOUDY    63  59  88 E3        29.94F VSB 1/2
MTN HOME       FOG       63  63 100 E6        29.94S VSB 1/2
$$

ARZ040-041-180800-
WEST CENTRAL ARKANSAS

CITY           SKY/WX    TMP DP  RH WIND       PRES   REMARKS
MENA             N/A     77  72  83 SW13G23   29.86F
MOUNT IDA      CLOUDY    76  71  85 NE5       29.90R
$$

ARZ009-017-025-026-028-180800-
NORTHEAST ARKANSAS

CITY           SKY/WX    TMP DP  RH WIND       PRES   REMARKS
CORNING          N/A     64  64 100 SE3       29.95F FOG
JONESBORO      CLOUDY    62  62 100 NE3       29.95S
NEWPORT        CLOUDY    61  61 100 CALM      29.95F FOG
WALNUT RIDGE   CLOUDY    63  61  94 N5        29.95S
BLYTHEVILLE    CLOUDY    65  63  93 CALM      29.95S
$$

ARZ022-023-033-042-044-180800-
CENTRAL ARKANSAS

CITY           SKY/WX    TMP DP  RH WIND       PRES   REMARKS
LITTLE ROCK    CLOUDY    73  69  87 E5        29.91F
N LITTLE ROCK    N/A     71  70  98 E6        29.91F
JACKSONVILLE   CLOUDY    68  67  94 NE6       29.91F
SEARCY         CLOUDY    64  63  97 NE6       29.94S
HOT SPRINGS    CLOUDY    75  70  84 CALM      29.91F
RUSSELLVILLE   CLOUDY    72  69  90 CALM      29.89F
CLINTON        CLOUDY    64  64 100 CALM      29.93F FOG
$$

ARZ036-180800-
EAST ARKANSAS

CITY           SKY/WX    TMP DP  RH WIND       PRES   REMARKS
WEST MEMPHIS   CLOUDY    65  65 100 CALM      29.92S
$$

ARZ050-053-066-070-073-180800-
SOUTHWEST ARKANSAS

CITY           SKY/WX    TMP DP  RH WIND       PRES   REMARKS
ARKADELPHIA    FAIR      73  73 100 NE3       29.90F
CAMDEN         CLOUDY    72  68  88 CALM      29.90S
TEXARKANA      CLOUDY    76  72  87 SW5       29.90F
EL DORADO      CLOUDY    73  71  93 SW8       29.89F
DE QUEEN       CLOUDY    73  67  81 CALM      29.91S
$$

ARZ056-057-069-180800-
SOUTHEAST ARKANSAS

CITY           SKY/WX    TMP DP  RH WIND       PRES   REMARKS
PINE BLUFF     CLOUDY    71  69  93 SE3       29.90F
STUTTGART      CLOUDY    70  66  88 E5        29.92S
MONTICELLO     CLOUDY    72  69  90 CALM      29.91R

$$





USA.gov is the U.S. government's official web portal to all federal, state and local government web resources and services.